ビショア彗星

C/2005 X1 ( Beshore )

English version
Home page
Updated on September 3, 2006

---------------------------------------------------------------------

・ プロフィール

発見日 2005年12月7日
発見光度 19.6等
発見者 Edward C. Beshore (Catalina Sky Survey)

・ 軌道要素

T 2005 July 5.6925 TT                                   MPC
q   2.861471             (2000.0)            P               Q
z  +0.001652       Peri.  117.7617      -0.2773872      -0.4661617
                   Node   302.8000      -0.0073847      +0.8754108
e   0.995274       Incl.   91.9309      +0.9607298      -0.1278638
>From 95 observations 2005 Dec. 7-2006 Feb. 2.

・ 光度変化

        m1 = 11.0 + 5 logΔ + 10.0 log r

---------------------------------------------------------------------

軌道要素はM.P.E.C. 2006-C23に掲載されたものです。
光度グラフはComet for Windowsで作成したものです。

---------------------------------------------------------------------

Copyright(C) Seiichi Yoshida (comet@aerith.net). All rights reserved.